Tracking 29487 objects as of 12-Sep-2024
HD Live streaming from Space Station
objects crossing your sky now

FENGYUN 1C DEB

Track FENGYUN 1C DEB now!
10-day predictions


NORAD ID: 31613
Int'l Code: 1999-025BZT
Perigee: 781.2 km
Apogee: 1,298.2 km
Inclination: 98.5 °
Period: 105.8 minutes
Semi major axis: 7410 km
RCS: 0.0083 m2 (small)
Launch date: May 10, 1999
Source: People's Republic of China (PRC)
Launch site: Taiyaun Space Center, China (TSC)

Note: This is SATELLITE DEBRIS
Your satellite tracking list
Your tracking list is empty




NASA's NSSDC Master Catalog

Two Line Element Set (TLE):
1 31613U 99025BZT 24251.63064519  .00005263  00000-0  46749-2 0  9995
2 31613  98.4613 133.2145 0348845 244.3163 112.1575 13.60856323855211
Source of the keplerian elements: AFSPC